Stündliche Wetter Holubivka

Heute, 24 Juni, Donnerstag

Zeit Temperatur Niederschläge Wind Luftdruck Luftfeuchtigkeit
00:00 +24°C° 0 mm 3 m/S 749 mmHg 84%
01:00 +22°C° 0 mm 3 m/S 749 mmHg 85%
02:00 +22°C° 0 mm 3 m/S 749 mmHg 86%
03:00 +22°C° 0 mm 3 m/S 749 mmHg 86%
04:00 +22°C° 0 mm 3 m/S 749 mmHg 85%
05:00 +22°C° 0 mm 3 m/S 749 mmHg 85%
06:00 +25°C° 0 mm 3 m/S 749 mmHg 80%
07:00 +26°C° 0 mm 3 m/S 749 mmHg 76%
08:00 +28°C° 0 mm 3 m/S 749 mmHg 71%
09:00 +29°C° 0 mm 3 m/S 749 mmHg 66%
10:00 +32°C° 0 mm 4 m/S 749 mmHg 61%
11:00 +33°C° 0 mm 4 m/S 749 mmHg 56%
12:00 +34°C° 0 mm 4 m/S 749 mmHg 55%
13:00 +34°C° 0 mm 4 m/S 749 mmHg 54%
14:00 +35°C° 0 mm 4 m/S 749 mmHg 53%
15:00 +34°C° 0 mm 4 m/S 749 mmHg 57%
16:00 +34°C° 0 mm 3 m/S 749 mmHg 60%
17:00 +34°C° 0 mm 2 m/S 749 mmHg 64%
18:00 +31°C° 0 mm 2 m/S 749 mmHg 68%
19:00 +29°C° 0 mm 2 m/S 749 mmHg 72%
20:00 +27°C° 0 mm 2 m/S 749 mmHg 76%
21:00 +27°C° 0 mm 2 m/S 748 mmHg 77%
22:00 +26°C° 0 mm 2 m/S 748 mmHg 78%
23:00 +25°C° 0 mm 2 m/S 748 mmHg 79%

Morgen, 25 Juni, Freitag

Zeit Temperatur Niederschläge Wind Luftdruck Luftfeuchtigkeit
00:00 +25°C° 0 mm 1 m/S 748 mmHg 81%
01:00 +24°C° 0 mm 1 m/S 748 mmHg 83%
02:00 +22°C° 0 mm 0 m/S 748 mmHg 86%
03:00 +24°C° 0 mm 1 m/S 748 mmHg 86%
04:00 +24°C° 0 mm 1 m/S 748 mmHg 87%
05:00 +24°C° 0 mm 2 m/S 748 mmHg 87%
06:00 +25°C° 0 mm 2 m/S 748 mmHg 82%
07:00 +27°C° 0 mm 3 m/S 748 mmHg 77%
08:00 +29°C° 0 mm 3 m/S 748 mmHg 72%
09:00 +30°C° 0 mm 3 m/S 748 mmHg 66%
10:00 +31°C° 0 mm 2 m/S 748 mmHg 61%
11:00 +32°C° 0 mm 2 m/S 748 mmHg 56%
12:00 +32°C° 0 mm 2 m/S 748 mmHg 54%
13:00 +34°C° 0 mm 2 m/S 748 mmHg 51%
14:00 +34°C° 0 mm 2 m/S 748 mmHg 49%
15:00 +34°C° 0 mm 2 m/S 747 mmHg 53%
16:00 +34°C° 0 mm 2 m/S 747 mmHg 57%
17:00 +34°C° 0 mm 2 m/S 747 mmHg 60%
18:00 +31°C° 0 mm 2 m/S 746 mmHg 66%
19:00 +29°C° 0 mm 2 m/S 746 mmHg 71%
20:00 +27°C° 0 mm 2 m/S 746 mmHg 76%
21:00 +26°C° 0.2 mm 1 m/S 746 mmHg 77%
22:00 +26°C° 0.2 mm 1 m/S 746 mmHg 78%
23:00 +25°C° 0.2 mm 1 m/S 747 mmHg 79%

übermorgen, 26 Juni, Samstag

Zeit Temperatur Niederschläge Wind Luftdruck Luftfeuchtigkeit
00:00 +25°C° 0.1 mm 1 m/S 746 mmHg 81%
01:00 +24°C° 0.1 mm 1 m/S 746 mmHg 83%
02:00 +24°C° 0.1 mm 1 m/S 746 mmHg 84%
03:00 +23°C° 0.4 mm 1 m/S 746 mmHg 86%
04:00 +23°C° 0.4 mm 2 m/S 746 mmHg 88%
05:00 +23°C° 0.4 mm 2 m/S 746 mmHg 90%
06:00 +25°C° 0.2 mm 2 m/S 746 mmHg 85%
07:00 +26°C° 0.2 mm 2 m/S 746 mmHg 81%
08:00 +28°C° 0.2 mm 2 m/S 746 mmHg 76%
09:00 +29°C° 0.6 mm 2 m/S 746 mmHg 71%
10:00 +30°C° 0.6 mm 2 m/S 746 mmHg 66%
11:00 +31°C° 0.6 mm 1 m/S 746 mmHg 61%
12:00 +32°C° 0.2 mm 1 m/S 746 mmHg 58%
13:00 +32°C° 0.2 mm 2 m/S 746 mmHg 55%
14:00 +32°C° 0.2 mm 2 m/S 745 mmHg 52%
15:00 +32°C° 0.1 mm 2 m/S 745 mmHg 55%
16:00 +32°C° 0.1 mm 1 m/S 745 mmHg 58%
17:00 +32°C° 0.1 mm 1 m/S 744 mmHg 61%
18:00 +28°C° 2.3 mm 2 m/S 744 mmHg 70%
19:00 +25°C° 2.3 mm 2 m/S 744 mmHg 78%
20:00 +20°C° 2.3 mm 3 m/S 745 mmHg 86%
21:00 +20°C° 1 mm 3 m/S 745 mmHg 89%
22:00 +20°C° 1 mm 4 m/S 745 mmHg 93%
23:00 +20°C° 1 mm 4 m/S 745 mmHg 97%

27 Juni, Sonntag

Zeit Temperatur Niederschläge Wind Luftdruck Luftfeuchtigkeit
00:00 +20°C° 0.2 mm 3 m/S 744 mmHg 96%
01:00 +20°C° 0.2 mm 3 m/S 744 mmHg 95%
02:00 +19°C° 0.2 mm 3 m/S 744 mmHg 95%
03:00 +20°C° 0 mm 2 m/S 744 mmHg 95%
04:00 +20°C° 0 mm 2 m/S 744 mmHg 95%
05:00 +21°C° 0 mm 1 m/S 744 mmHg 95%
06:00 +21°C° 0.1 mm 2 m/S 744 mmHg 91%
07:00 +23°C° 0.1 mm 2 m/S 744 mmHg 87%
08:00 +24°C° 0.1 mm 3 m/S 744 mmHg 83%
09:00 +25°C° 0 mm 3 m/S 744 mmHg 79%
10:00 +27°C° 0 mm 3 m/S 745 mmHg 74%
11:00 +28°C° 0 mm 3 m/S 745 mmHg 70%
12:00 +28°C° 0.1 mm 3 m/S 744 mmHg 70%
13:00 +29°C° 0.1 mm 3 m/S 744 mmHg 69%
14:00 +29°C° 0.1 mm 3 m/S 744 mmHg 69%
15:00 +28°C° 0.9 mm 4 m/S 744 mmHg 73%
16:00 +28°C° 0.9 mm 4 m/S 744 mmHg 77%
17:00 +27°C° 0.9 mm 4 m/S 744 mmHg 81%
18:00 +26°C° 0.6 mm 4 m/S 744 mmHg 85%
19:00 +24°C° 0.6 mm 3 m/S 744 mmHg 89%
20:00 +22°C° 0.6 mm 3 m/S 744 mmHg 94%
21:00 +21°C° 0.7 mm 3 m/S 744 mmHg 95%
22:00 +21°C° 0.7 mm 4 m/S 744 mmHg 96%
23:00 +20°C° 0.7 mm 4 m/S 744 mmHg 97%

28 Juni, Montag

Zeit Temperatur Niederschläge Wind Luftdruck Luftfeuchtigkeit
00:00 +20°C° 0.2 mm 4 m/S 744 mmHg 97%
01:00 +20°C° 0.2 mm 4 m/S 744 mmHg 96%
02:00 +20°C° 0.2 mm 5 m/S 744 mmHg 96%
03:00 +20°C° 0.1 mm 5 m/S 744 mmHg 96%
04:00 +19°C° 0.1 mm 5 m/S 744 mmHg 96%
05:00 +19°C° 0.1 mm 5 m/S 744 mmHg 96%
06:00 +20°C° 0.1 mm 5 m/S 745 mmHg 95%
07:00 +20°C° 0.1 mm 4 m/S 745 mmHg 94%
08:00 +20°C° 0.1 mm 4 m/S 745 mmHg 93%
09:00 +20°C° 0.5 mm 4 m/S 745 mmHg 92%
10:00 +20°C° 0.5 mm 4 m/S 745 mmHg 92%
11:00 +21°C° 0.5 mm 4 m/S 746 mmHg 92%
12:00 +21°C° 0.8 mm 4 m/S 745 mmHg 91%
13:00 +21°C° 0.8 mm 4 m/S 745 mmHg 90%
14:00 +21°C° 0.8 mm 5 m/S 745 mmHg 90%
15:00 +21°C° 0.5 mm 4 m/S 745 mmHg 89%
16:00 +21°C° 0.5 mm 4 m/S 745 mmHg 89%
17:00 +21°C° 0.5 mm 4 m/S 745 mmHg 89%
18:00 +20°C° 0.3 mm 3 m/S 745 mmHg 90%
19:00 +20°C° 0.3 mm 3 m/S 745 mmHg 91%
20:00 +19°C° 0.3 mm 3 m/S 746 mmHg 92%
21:00 +19°C° 0 mm 3 m/S 745 mmHg 92%
22:00 +19°C° 0 mm 3 m/S 745 mmHg 92%
23:00 +18°C° 0 mm 3 m/S 745 mmHg 92%

29 Juni, Dienstag

Zeit Temperatur Niederschläge Wind Luftdruck Luftfeuchtigkeit
00:00 +18°C° 0 mm 3 m/S 745 mmHg 92%
01:00 +18°C° 0 mm 3 m/S 745 mmHg 92%
02:00 +17°C° 0 mm 3 m/S 745 mmHg 92%
03:00 +17°C° 0 mm 3 m/S 745 mmHg 92%
04:00 +17°C° 0 mm 3 m/S 745 mmHg 92%
05:00 +17°C° 0 mm 3 m/S 745 mmHg 91%
06:00 +18°C° 0 mm 4 m/S 745 mmHg 88%
07:00 +19°C° 0 mm 4 m/S 745 mmHg 84%
08:00 +20°C° 0 mm 4 m/S 745 mmHg 80%
09:00 +21°C° 0.1 mm 5 m/S 745 mmHg 75%
10:00 +22°C° 0.1 mm 5 m/S 745 mmHg 70%
11:00 +23°C° 0.1 mm 5 m/S 745 mmHg 65%
12:00 +25°C° 0.3 mm 5 m/S 745 mmHg 63%
13:00 +25°C° 0.3 mm 5 m/S 745 mmHg 62%
14:00 +25°C° 0.3 mm 5 m/S 745 mmHg 61%
15:00 +25°C° 0.7 mm 5 m/S 745 mmHg 66%
16:00 +23°C° 0.7 mm 5 m/S 745 mmHg 71%
17:00 +22°C° 0.7 mm 4 m/S 745 mmHg 76%
18:00 +21°C° 0.4 mm 4 m/S 745 mmHg 79%
19:00 +20°C° 0.4 mm 3 m/S 745 mmHg 82%
20:00 +19°C° 0.4 mm 2 m/S 745 mmHg 85%
21:00 +18°C° 0.1 mm 2 m/S 744 mmHg 86%
22:00 +18°C° 0.1 mm 3 m/S 744 mmHg 88%
23:00 +18°C° 0.1 mm 3 m/S 744 mmHg 89%
Mehr zeigen

Wir brauchen deine Erlaubnis

Meteoprog und unser Service Anbieter werden persönliche Daten aufbewahren, so wie Cookies, Geräte Bezeichnung oder ähnliche Technologien von deinem Gerät und Prozess, so wie Persönliche Daten Inhalte und Werbungen, genauso wie social Media und den Verkehr zu analysieren.

  • Aufbewahrung und/oder Zugang zu deiner Geräte Informationen.

    Cookies, Geräte Bezeichnung oder andere Informationen, können aufbewahrt oder Zugang zu deinem Gerät erhalten, für den Grund, der oben angegeben wird.

  • Personalisierte Werbung und Inhalte, Messungen, Einblick in das Publikum und Produkt Entwicklung.

    Werbungen und Inhalte können personalisiert werden, basierend auf ein Profil. Mehr Daten können besser personalisierte Werbungen und Inhalte hinzufügen. Werbung und Inhalte können gezeigt und gemessen werden. Einblicke über das Publikum, welche die Werbung gesehen haben und den Inhalt, können abgeleitet werden. So wie Daten können genutzt werden, um es zu verbessern oder die Benutzer Erfahrung zu verbessern das System und die Software.

Wenn du “Ich stimme zu” klickst, erlaubst du uns, die Cookies zu benutzen die Geräte Bezeichnung, den Web oder ähnliche Technologien zu benutzen. Deine Settings, können in deinem Gerät bei deinem Browser geändert werden.

Für den bestimmten Zweck, berechtigten Interessen beruhen darauf, mehr als auf den Inhalt. Du kannst mehr darüber in unseren Privaten und Cookie Politik lesen.